Showing default

PRAETORIAN SDA_609, 65572

Orbit data source: Space-Track

PRAETORIAN SDA_609, 65572 is a payload satellite owned by SDA (US) in LEO that was launched on Wed, 10 Sep 2025 UTC via an FALCON 9 launch vehicle from the Air Force Western Test Range (AFWTR). Payload-class satellites include a variety of spacecraft equipped with specific instruments for various scientific and technological missions. These include communications satellites like Starlink; space stations such as the ISS; scientific satellites like the Hubble; Earth observation satellites from companies like Planet Labs, Umbra, and HawkEye 360; GPS; miniature CubeSats for education and research; and military/defense satellites.

Loading next visibility...
Identifier
65572, 2025-203H
Orbit
LEO
Country
Flag of USUS
Related business
Manufacturer
York Space Sys
Mission
Operational Defense Communications
Bus & Motor
S-CLASS, Unknown motor
Mass
~300 kg wet, ~300 kg dry
Launch date (UTC)
2025-09-10 (9 months ago)
Launch vehicle
FALCON 9
Launch site
Air Force Western Test Range (AFWTR)
Object type
Payload
Rocket body
Debris
Shape & HBR
Box + 4 Pan, 14.5 m
Radar Cross Section
1.244 m², Large (>1 m²)

Expand to show TLE details & history
Last TLE update: 22 hours ago

TLE from 22 hours ago
0 PRAETORIAN SDA_609
1 65572U 25203H   26170.97224787 -.00000045  00000-0 -50798-4 0  9993
2 65572  81.3047   8.2110 0006881 177.4428 182.6765 13.84210630 39081
Epoch: 2026-06-19T23:20Z
TLE epoch observation values (Epoch: 2026-06-19T23:20:02.215Z)
Latitude
-0.00006°
Longitude
110.0082°
Altitude
956.893 km
Speed
7.371 km/s
True Right ascension
00h 32m 50s
True Declination
0° 00' 00"
Sunlit
Object was in daylight at epoch
Visualization orbit readout
Latitude
Unknown
Longitude
Unknown
Altitude
Unknown
Speed
Unknown
Apparent Right ascension
Unknown
Apparent Declination
Unknown
Sunlit
N/A
Visualization observer readout
Local Sidereal Time
08:32:54
Azimuth
Unknown
Elevation
Unknown
Doppler factor
Unknown
Orbital elements
Apogee altitude
951.236 km
Perigee altitude
941.156 km
Semi-major axis
7,324.333 km
Eccentricity
0.00069
Inclination
81.3047°
RAAN
8.211°
Arg. of periapsis
177.4428°
True anomaly
182.67282°
Mean anomaly
182.6765°
Eccentric anomaly
182.67466°
Mean motion
3.46251 °/min
Orbital period
103.97 mins
BSTAR
-0.000050798
Loading maneuver chart data...
Computing Atmospheric mass density...
Loading historical data...
Loading historical data...
Loading historical data...
Loading historical data...
Loading historical data...
Loading historical data...
Loading historical data...

Documentation

Showing up to 5 results
|